Temp
10 10 10 10 10 10 10 10 10 9 9 9 8 7 7 6 6 6 5 5 5 5 5 5 5 5 6 6 6 5 5 5
9 10 10 10 10 10 10 9 10 9 9 9 9 8 7 7 6 6 6 5 5 5 5 5 5 5 5 6 5 6 5 5
10 10 10 9 9 9 9 9 9 9 9 9 8 8 8 7 6 6 6 5 5 5 5 5 5 5 5 5 4 5 5 5
9 10 9 9 9 9 9 9 9 9 8 9 8 8 8 7 6 6 6 6 5 5 5 4 4 4 4 4 3 3 4 4
9 9 9 9 9 9 9 8 8 8 8 8 8 8 8 7 7 6 6 5 5 5 5 4 4 4 4 3 3 3 2 3
8 8 9 8 8 8 8 8 8 8 8 8 8 8 7 7 7 7 7 6 5 5 5 3 3 3 3 3 2 2 2 2
8 8 8 8 8 8 8 8 8 8 8 8 7 8 7 7 7 7 7 6 6 6 5 4 4 4 3 3 2 2 2 2
7 7 8 8 8 8 8 8 7 7 7 7 7 7 7 7 7 7 6 6 6 5 5 4 4 3 3 3 2 2 2 1
6 7 7 7 8 7 7 7 7 7 7 7 7 7 7 7 7 6 6 6 5 5 5 5 4 4 4 3 2 2 1 2
6 6 6 7 7 7 7 7 7 7 7 6 7 7 7 7 6 6 6 5 5 5 5 4 5 4 3 3 2 2 2 1
6 6 6 6 7 7 7 7 6 6 6 6 6 7 7 7 6 6 6 6 5 5 5 4 4 4 3 3 2 2 2 2
7 7 6 7 6 6 6 6 6 6 5 6 6 6 6 6 6 6 6 6 5 5 4 4 4 4 3 2 2 2 2 2
7 7 7 7 7 6 6 6 6 6 6 5 5 6 6 6 6 6 6 6 5 5 4 4 4 4 2 2 2 2 2 1
6 6 7 6 6 6 6 6 6 6 6 6 6 5 5 6 6 6 6 6 5 5 4 4 4 4 2 1 1 1 2 2
5 6 6 6 6 6 6 6 5 6 6 6 6 5 5 6 6 6 5 6 5 5 4 4 4 3 2 2 2 2 2 1
5 6 6 6 6 6 6 6 6 6 6 6 6 5 5 5 5 5 5 5 5 5 5 4 4 4 2 2 2 1 1 1
5 6 6 6 6 6 6 6 6 6 6 6 6 5 5 5 5 5 5 5 5 5 5 4 3 3 3 3 2 2 1 1
5 6 6 6 7 6 6 6 6 6 6 6 5 5 5 5 5 5 6 5 5 5 5 4 3 3 3 3 2 2 2 1
5 6 6 6 6 6 6 6 6 6 6 5 5 4 4 5 6 6 6 6 5 5 4 4 4 3 3 3 2 2 1 1
5 5 5 6 6 6 6 6 5 5 5 5 4 4 4 5 6 6 6 6 5 5 4 4 4 3 2 1 2 2 1 1
Height
3121 3122 3124 3125 3127 3128 3130 3131 3132 3131 3131 3132 3132 3133 3134 3135 3137 3138 3140 3140 3142 3142 3143 3144 3144 3146 3148 3149 3150 3149 3150 3151
3118 3120 3121 3122 3124 3126 3127 3129 3129 3129 3130 3130 3131 3131 3133 3133 3135 3137 3138 3139 3140 3140 3141 3142 3143 3144 3146 3148 3149 3149 3149 3150
3115 3117 3118 3120 3122 3123 3125 3126 3127 3127 3128 3129 3129 3130 3131 3132 3133 3135 3136 3137 3138 3140 3140 3140 3141 3142 3144 3146 3148 3148 3148 3149
3113 3114 3115 3116 3118 3120 3121 3123 3125 3125 3125 3126 3127 3128 3129 3130 3132 3133 3134 3135 3136 3138 3138 3138 3140 3141 3142 3144 3145 3146 3147 3148
3111 3111 3112 3113 3115 3116 3118 3120 3121 3123 3123 3124 3125 3126 3127 3128 3129 3130 3132 3133 3134 3135 3135 3136 3138 3139 3140 3142 3142 3142 3144 3146
3108 3108 3108 3109 3111 3112 3114 3116 3118 3120 3121 3122 3123 3124 3125 3126 3127 3128 3129 3130 3131 3132 3133 3133 3134 3135 3136 3137 3137 3139 3140 3139
3103 3104 3105 3105 3107 3108 3109 3111 3113 3116 3117 3118 3120 3121 3122 3124 3124 3125 3126 3127 3128 3130 3130 3130 3131 3131 3132 3133 3133 3134 3133 3133
3096 3097 3099 3100 3101 3102 3104 3106 3108 3111 3113 3115 3116 3118 3118 3120 3122 3123 3124 3124 3125 3126 3127 3127 3126 3126 3127 3128 3129 3130 3130 3128
3085 3089 3091 3092 3094 3095 3096 3098 3100 3104 3108 3110 3112 3113 3115 3116 3118 3119 3120 3121 3121 3122 3122 3122 3122 3122 3123 3124 3124 3126 3126 3128
3077 3079 3081 3084 3087 3088 3090 3092 3093 3097 3101 3104 3107 3108 3110 3112 3113 3115 3116 3117 3117 3117 3118 3118 3118 3117 3118 3119 3120 3121 3122 3122
3066 3069 3071 3075 3078 3081 3082 3085 3088 3090 3093 3097 3101 3103 3106 3107 3109 3111 3112 3112 3113 3113 3114 3114 3114 3113 3113 3114 3114 3116 3117 3118
3055 3059 3062 3066 3070 3072 3075 3077 3081 3083 3087 3090 3094 3097 3100 3102 3103 3106 3107 3107 3108 3108 3109 3109 3109 3108 3108 3108 3108 3110 3111 3113
3042 3047 3050 3056 3058 3060 3065 3068 3073 3078 3080 3083 3086 3089 3092 3095 3097 3099 3101 3101 3102 3103 3103 3104 3104 3103 3102 3101 3101 3102 3104 3106
3032 3034 3038 3043 3048 3054 3057 3062 3065 3070 3074 3077 3079 3081 3085 3087 3091 3093 3094 3095 3096 3097 3097 3098 3097 3096 3096 3096 3094 3092 3094 3097
3021 3023 3028 3034 3040 3045 3048 3052 3056 3059 3065 3068 3071 3074 3077 3080 3082 3086 3088 3089 3090 3092 3091 3091 3091 3090 3090 3090 3089 3088 3090 3091
3011 3016 3020 3026 3031 3034 3038 3044 3047 3051 3058 3063 3065 3067 3069 3071 3074 3078 3081 3083 3083 3084 3085 3085 3084 3083 3083 3083 3084 3084 3084 3087
3005 3010 3016 3020 3023 3027 3032 3036 3042 3046 3051 3056 3059 3060 3062 3065 3067 3070 3073 3075 3076 3077 3077 3078 3077 3076 3077 3077 3079 3079 3078 3078
2999 3004 3010 3014 3017 3021 3025 3030 3035 3039 3044 3048 3050 3054 3056 3057 3059 3062 3065 3067 3068 3069 3070 3069 3069 3069 3069 3069 3071 3074 3074 3074
2992 2996 3000 3006 3011 3015 3019 3023 3028 3033 3038 3041 3044 3046 3046 3048 3050 3053 3057 3059 3060 3061 3061 3061 3061 3061 3061 3062 3064 3066 3069 3070
2984 2988 2993 2997 3002 3008 3012 3017 3021 3026 3029 3035 3037 3038 3039 3040 3043 3046 3049 3051 3052 3053 3053 3052 3052 3052 3052 3054 3056 3058 3061 3063
Wind_Speed
16 16 13 12 14 11 10 8 7 5 7 10 12 14 14 16 17 17 17 17 15 14 14 13 14 11 9 9 11 11 12 12
17 17 15 15 15 15 12 10 8 5 6 9 11 13 14 16 17 18 19 16 17 16 17 17 16 13 11 17 15 13 13 14
21 20 20 17 20 20 16 13 11 8 5 7 10 10 12 14 16 18 19 19 18 17 17 17 16 16 13 14 18 16 13 15
26 25 23 20 22 23 20 16 14 10 8 6 8 10 11 13 15 17 18 19 19 19 19 19 20 17 16 13 15 21 22 17
26 27 25 25 25 26 24 21 19 16 11 8 7 10 10 12 14 14 17 17 18 19 22 21 21 19 18 20 17 16 19 28
26 27 27 28 30 29 29 26 23 21 17 12 10 9 10 10 10 10 13 14 15 18 19 21 21 21 21 24 18 22 23 24
27 29 29 30 30 33 33 32 29 26 23 18 15 10 10 11 9 8 8 9 10 14 17 20 21 24 25 27 27 22 19 27
29 28 29 32 35 34 33 37 34 31 29 24 19 16 13 13 12 10 9 8 8 9 14 19 22 24 24 26 23 23 20 21
35 30 29 33 36 30 28 34 38 37 33 29 24 21 17 16 16 15 13 12 13 13 13 16 23 26 26 27 25 26 26 22
37 36 34 34 36 35 31 29 31 38 36 33 29 26 24 21 20 19 18 17 18 17 16 17 19 24 25 27 27 29 29 27
45 40 40 36 37 38 37 33 32 29 34 36 34 31 29 26 24 23 22 21 21 20 19 20 21 23 25 28 29 29 29 29
56 50 47 43 40 41 38 36 33 33 30 32 36 34 32 30 29 28 27 25 25 23 22 23 23 24 26 28 29 30 31 29
52 59 57 49 49 45 42 43 42 38 37 29 28 33 36 34 33 31 30 29 26 26 26 26 26 25 25 29 31 33 34 35
34 44 50 55 46 42 42 39 38 39 36 32 31 29 32 35 36 33 32 30 29 29 28 27 28 26 27 29 29 27 27 34
33 32 37 46 41 37 40 41 36 40 37 37 32 29 27 31 36 35 31 31 30 29 30 30 30 27 26 29 32 34 31 28
38 36 36 39 40 40 40 38 38 41 39 36 30 27 25 27 33 32 30 30 30 30 30 31 32 30 27 29 34 36 33 33
40 40 35 38 39 38 34 35 35 36 35 32 33 28 26 27 32 33 32 31 31 31 30 32 34 32 30 31 33 34 31 29
40 39 38 36 33 36 32 32 34 34 37 33 35 31 32 34 31 34 34 32 33 31 32 34 35 33 32 34 33 36 31 33
35 35 32 40 39 37 32 28 30 32 30 31 35 33 35 37 31 33 34 34 32 32 34 36 36 34 33 34 33 35 36 33
32 32 28 31 33 41 36 30 28 28 30 31 33 34 36 30 28 30 33 32 31 34 36 38 36 35 35 35 31 34 36 34
Wind_Direction
263 271 267 256 269 249 264 271 286 297 294 286 268 252 239 229 230 230 231 231 234 235 240 245 242 239 245 273 260 232 224 225
259 263 263 270 264 249 245 249 262 280 287 286 275 262 249 240 236 229 232 230 230 237 243 248 249 244 252 273 275 248 230 223
250 253 259 265 260 245 233 242 242 262 263 289 278 269 257 246 243 236 235 235 240 242 249 251 249 255 258 268 271 263 241 230
249 246 251 257 258 250 237 235 243 250 248 272 281 265 260 250 241 239 241 242 247 248 251 251 251 255 266 262 264 274 252 237
251 249 248 246 247 249 246 240 242 245 247 248 273 263 258 262 255 248 247 250 254 258 257 257 255 255 262 260 273 287 244 234
245 243 248 245 242 245 246 243 243 243 244 243 247 265 257 259 264 263 260 257 253 258 259 255 255 255 261 251 257 270 284 237
250 247 246 249 246 247 245 245 243 241 243 241 243 247 248 252 252 254 257 261 266 270 264 261 258 260 260 261 267 268 295 231
246 243 239 247 253 259 255 246 242 240 241 242 241 244 236 243 250 252 251 254 263 274 276 264 260 258 257 261 263 269 278 228
235 242 241 251 260 260 261 248 240 238 239 241 241 243 241 241 248 256 259 260 266 276 287 283 268 263 260 255 254 264 273 265
239 232 235 250 257 258 264 261 241 234 235 239 240 243 244 245 249 258 260 261 266 271 280 281 288 270 264 262 257 261 268 278
240 240 234 240 253 257 260 269 247 234 234 236 238 241 245 246 250 255 258 262 264 268 274 282 290 280 265 259 258 256 253 265
244 240 243 243 245 250 250 257 248 236 232 235 236 238 243 247 250 252 256 260 263 269 275 278 289 279 262 261 258 255 246 255
249 246 243 239 239 245 251 258 257 241 233 231 236 238 240 245 248 250 254 259 263 266 268 275 285 279 260 265 258 252 248 259
233 240 246 235 237 245 251 252 252 243 240 235 241 240 243 245 247 249 254 257 262 266 271 274 280 278 259 263 258 258 248 270
242 234 238 232 234 238 244 237 242 239 237 237 238 240 246 251 246 247 254 260 265 268 270 274 280 280 259 259 259 250 271 246
247 235 237 231 231 231 235 238 244 240 238 245 242 248 252 262 246 244 251 259 266 267 268 270 275 282 265 256 252 258 261 233
248 237 236 231 232 234 233 237 241 241 242 247 251 251 256 267 245 245 250 259 263 265 267 271 273 277 266 257 252 256 256 255
246 243 234 228 234 231 231 239 238 242 242 246 252 252 260 268 254 246 250 254 260 263 269 271 272 272 265 259 255 249 263 246
236 241 235 233 234 232 233 237 241 237 232 244 246 254 266 270 252 248 248 253 258 261 267 268 269 265 263 255 254 244 251 254
227 226 230 226 225 228 234 237 228 230 228 235 243 260 266 254 244 241 247 250 254 262 266 268 265 262 261 252 253 240 254 246